Time,TemperatureF,DewpointF,PressureIn,WindDirection,WindDirectionDegrees,WindSpeedMPH,WindSpeedGustMPH,Humidity,HourlyPrecipIn,Conditions,Clouds,dailyrainin,SoftwareType,DateUTC
2013-01-05 00:12:00,25.6,23.0,29.78,SE,146,0.0,0.0,90,0.00,,,0.00,weatherlink.com 1.10,2013-01-05 05:12:00,
2013-01-05 00:27:00,25.8,23.0,29.79,SE,146,0.0,0.0,88,0.00,,,0.00,weatherlink.com 1.10,2013-01-05 05:27:00,
2013-01-05 00:42:00,25.9,23.0,29.79,SE,133,0.0,0.0,88,0.00,,,0.00,weatherlink.com 1.10,2013-01-05 05:42:00,
2013-01-05 00:57:00,25.9,23.0,29.79,West,264,0.0,0.0,87,0.00,,,0.00,weatherlink.com 1.10,2013-01-05 05:57:00,
2013-01-05 01:12:00,26.1,22.0,29.78,NW,315,0.0,0.0,85,0.00,,,0.00,weatherlink.com 1.10,2013-01-05 06:12:00,
2013-01-05 01:27:00,26.1,22.0,29.79,NE,44,0.0,0.0,85,0.00,,,0.00,weatherlink.com 1.10,2013-01-05 06:27:00,
2013-01-05 01:42:00,26.2,23.0,29.80,WSW,254,0.0,0.0,86,0.00,,,0.00,weatherlink.com 1.10,2013-01-05 06:42:00,
2013-01-05 01:57:00,25.9,23.0,29.80,ENE,70,0.0,0.0,87,0.00,,,0.00,weatherlink.com 1.10,2013-01-05 06:57:00,
2013-01-05 02:12:00,25.9,23.0,29.81,East,95,0.0,0.0,88,0.00,,,0.00,weatherlink.com 1.10,2013-01-05 07:12:00,
2013-01-05 02:27:00,26.0,23.0,29.81,ESE,108,0.0,0.0,88,0.00,,,0.00,weatherlink.com 1.10,2013-01-05 07:27:00,
2013-01-05 02:42:00,25.9,23.0,29.82,SSW,192,0.0,0.0,90,0.00,,,0.00,weatherlink.com 1.10,2013-01-05 07:42:00,
2013-01-05 02:57:00,25.7,24.0,29.83,SW,226,0.0,0.0,92,0.00,,,0.00,weatherlink.com 1.10,2013-01-05 07:57:00,
2013-01-05 03:12:00,25.8,24.0,29.83,SSW,210,0.0,0.0,92,0.00,,,0.00,weatherlink.com 1.10,2013-01-05 08:12:00,
2013-01-05 03:27:00,25.8,24.0,29.84,East,92,0.0,0.0,94,0.00,,,0.00,weatherlink.com 1.10,2013-01-05 08:27:00,
2013-01-05 03:43:00,25.7,25.0,29.85,South,179,0.0,0.0,95,0.00,,,0.00,weatherlink.com 1.10,2013-01-05 08:43:00,
2013-01-05 03:58:00,25.7,25.0,29.85,SW,222,0.0,0.0,95,0.00,,,0.00,weatherlink.com 1.10,2013-01-05 08:58:00,
2013-01-05 04:13:00,25.6,24.0,29.86,WSW,248,0.0,0.0,95,0.00,,,0.00,weatherlink.com 1.10,2013-01-05 09:13:00,
2013-01-05 04:28:00,25.6,25.0,29.86,SE,132,0.0,0.0,96,0.00,,,0.00,weatherlink.com 1.10,2013-01-05 09:28:00,
2013-01-05 04:43:00,25.6,25.0,29.87,NE,53,0.0,0.0,96,0.00,,,0.00,weatherlink.com 1.10,2013-01-05 09:43:00,
2013-01-05 04:58:00,25.8,25.0,29.88,SSW,209,0.0,0.0,96,0.00,,,0.00,weatherlink.com 1.10,2013-01-05 09:58:00,
2013-01-05 05:13:00,25.9,25.0,29.89,WSW,238,0.0,0.0,96,0.00,,,0.00,weatherlink.com 1.10,2013-01-05 10:13:00,
2013-01-05 05:28:00,25.9,25.0,29.90,SW,214,0.0,0.0,96,0.00,,,0.00,weatherlink.com 1.10,2013-01-05 10:28:00,
2013-01-05 05:43:00,25.7,24.0,29.92,ESE,122,0.0,0.0,94,0.00,,,0.00,weatherlink.com 1.10,2013-01-05 10:43:00,
2013-01-05 05:58:00,25.7,24.0,29.93,SSW,210,0.0,0.0,94,0.00,,,0.00,weatherlink.com 1.10,2013-01-05 10:58:00,
2013-01-05 06:13:00,25.6,24.0,29.95,SW,233,0.0,0.0,95,0.00,,,0.00,weatherlink.com 1.10,2013-01-05 11:13:00,
2013-01-05 06:28:00,24.8,23.0,29.98,NE,40,0.0,0.0,93,0.00,,,0.00,weatherlink.com 1.10,2013-01-05 11:28:00,
2013-01-05 06:43:00,24.0,22.0,30.00,SE,128,0.0,0.0,91,0.00,,,0.00,weatherlink.com 1.10,2013-01-05 11:43:00,
2013-01-05 06:58:00,23.5,21.0,30.01,WSW,256,0.0,0.0,91,0.00,,,0.00,weatherlink.com 1.10,2013-01-05 11:58:00,
2013-01-05 07:13:00,23.2,20.0,30.02,SW,236,0.0,0.0,88,0.00,,,0.00,weatherlink.com 1.10,2013-01-05 12:13:00,
2013-01-05 07:28:00,22.9,20.0,30.03,WSW,253,0.0,0.0,89,0.00,,,0.00,weatherlink.com 1.10,2013-01-05 12:28:00,
2013-01-05 07:43:00,22.4,19.0,30.04,NW,308,0.0,0.0,87,0.00,,,0.00,weatherlink.com 1.10,2013-01-05 12:43:00,
2013-01-05 07:58:00,22.4,19.0,30.06,SW,236,0.0,0.0,88,0.00,,,0.00,weatherlink.com 1.10,2013-01-05 12:58:00,
2013-01-05 08:13:00,22.7,19.0,30.07,SW,221,0.0,0.0,87,0.00,,,0.00,weatherlink.com 1.10,2013-01-05 13:13:00,
2013-01-05 08:28:00,22.7,19.0,30.09,ESE,117,0.0,0.0,84,0.00,,,0.00,weatherlink.com 1.10,2013-01-05 13:28:00,
2013-01-05 08:43:00,22.7,19.0,30.10,WNW,283,0.0,0.0,84,0.00,,,0.00,weatherlink.com 1.10,2013-01-05 13:43:00,
2013-01-05 08:58:00,22.8,19.0,30.10,West,261,0.0,0.0,84,0.00,,,0.00,weatherlink.com 1.10,2013-01-05 13:58:00,
2013-01-05 09:13:00,22.5,20.0,30.12,NNE,16,0.0,0.0,89,0.00,,,0.00,weatherlink.com 1.10,2013-01-05 14:13:00,
2013-01-05 09:29:00,22.5,19.0,30.13,West,277,0.0,0.0,85,0.00,,,0.00,weatherlink.com 1.10,2013-01-05 14:29:00,
2013-01-05 09:44:00,23.6,18.0,30.13,NW,322,0.0,0.0,78,0.00,,,0.00,weatherlink.com 1.10,2013-01-05 14:44:00,
2013-01-05 09:59:00,22.9,19.0,30.15,ESE,103,0.0,0.0,83,0.00,,,0.00,weatherlink.com 1.10,2013-01-05 14:59:00,
2013-01-05 10:14:00,24.0,18.0,30.16,SE,138,0.0,0.0,79,0.00,,,0.00,weatherlink.com 1.10,2013-01-05 15:14:00,
2013-01-05 10:29:00,24.3,18.0,30.17,WNW,288,0.0,0.0,76,0.00,,,0.00,weatherlink.com 1.10,2013-01-05 15:29:00,
2013-01-05 10:44:00,24.8,17.0,30.17,WNW,302,0.0,0.0,72,0.00,,,0.00,weatherlink.com 1.10,2013-01-05 15:44:00,
2013-01-05 10:59:00,24.0,17.0,30.17,SSW,192,0.0,0.0,73,0.00,,,0.00,weatherlink.com 1.10,2013-01-05 15:59:00,
2013-01-05 11:14:00,23.4,16.0,30.17,ENE,77,0.0,0.0,72,0.00,,,0.00,weatherlink.com 1.10,2013-01-05 16:14:00,
2013-01-05 11:29:00,23.7,15.0,30.17,NE,49,0.0,0.0,70,0.00,,,0.00,weatherlink.com 1.10,2013-01-05 16:29:00,
2013-01-05 11:44:00,22.9,14.0,30.18,SE,141,0.0,0.0,70,0.00,,,0.00,weatherlink.com 1.10,2013-01-05 16:44:00,
2013-01-05 11:59:00,23.1,15.0,30.18,WNW,298,0.0,0.0,71,0.00,,,0.00,weatherlink.com 1.10,2013-01-05 16:59:00,
2013-01-05 12:14:00,23.2,15.0,30.20,North,355,0.0,0.0,70,0.00,,,0.00,weatherlink.com 1.10,2013-01-05 17:14:00,
2013-01-05 12:29:00,22.6,14.0,30.20,ESE,102,0.0,0.0,70,0.00,,,0.00,weatherlink.com 1.10,2013-01-05 17:29:00,
2013-01-05 12:44:00,22.0,14.0,30.20,WSW,242,0.0,0.0,72,0.00,,,0.00,weatherlink.com 1.10,2013-01-05 17:44:00,
2013-01-05 12:59:00,21.8,14.0,30.21,WNW,300,0.0,0.0,72,0.00,,,0.00,weatherlink.com 1.10,2013-01-05 17:59:00,
2013-01-05 13:14:00,21.7,13.0,30.20,WSW,256,0.0,0.0,70,0.00,,,0.00,weatherlink.com 1.10,2013-01-05 18:14:00,
2013-01-05 13:29:00,22.2,13.0,30.21,WSW,257,0.0,0.0,69,0.00,,,0.00,weatherlink.com 1.10,2013-01-05 18:29:00,
2013-01-05 13:44:00,21.4,13.0,30.22,NE,51,0.0,0.0,70,0.00,,,0.00,weatherlink.com 1.10,2013-01-05 18:44:00,
2013-01-05 13:59:00,20.8,12.0,30.22,North,350,0.0,0.0,70,0.00,,,0.00,weatherlink.com 1.10,2013-01-05 18:59:00,
2013-01-05 14:14:00,20.5,12.0,30.22,NNE,26,0.0,0.0,71,0.00,,,0.00,weatherlink.com 1.10,2013-01-05 19:14:00,
2013-01-05 14:29:00,20.2,12.0,30.22,SE,126,0.0,0.0,71,0.00,,,0.00,weatherlink.com 1.10,2013-01-05 19:29:00,
2013-01-05 14:44:00,19.8,13.0,30.22,NW,322,0.0,0.0,74,0.00,,,0.00,weatherlink.com 1.10,2013-01-05 19:44:00,
2013-01-05 14:59:00,19.3,13.0,30.22,West,261,0.0,0.0,76,0.00,,,0.00,weatherlink.com 1.10,2013-01-05 19:59:00,
2013-01-05 15:14:00,18.8,12.0,30.22,NE,41,0.0,0.0,74,0.00,,,0.00,weatherlink.com 1.10,2013-01-05 20:14:00,
2013-01-05 15:29:00,18.3,12.0,30.22,ENE,70,0.0,0.0,76,0.00,,,0.00,weatherlink.com 1.10,2013-01-05 20:29:00,
2013-01-05 15:44:00,17.4,12.0,30.23,NNE,30,0.0,0.0,79,0.00,,,0.00,weatherlink.com 1.10,2013-01-05 20:44:00,
2013-01-05 15:59:00,16.7,12.0,30.23,NE,38,0.0,0.0,83,0.00,,,0.00,weatherlink.com 1.10,2013-01-05 20:59:00,
2013-01-05 16:14:00,15.9,12.0,30.23,NE,40,0.0,0.0,85,0.00,,,0.00,weatherlink.com 1.10,2013-01-05 21:14:00,
2013-01-05 16:29:00,15.3,12.0,30.23,NE,42,0.0,0.0,86,0.00,,,0.00,weatherlink.com 1.10,2013-01-05 21:29:00,
2013-01-05 16:45:00,14.0,11.0,30.23,ENE,63,0.0,0.0,86,0.00,,,0.00,weatherlink.com 1.10,2013-01-05 21:45:00,
2013-01-05 17:00:00,14.0,11.0,30.24,ENE,63,0.0,0.0,88,0.00,,,0.00,weatherlink.com 1.10,2013-01-05 22:00:00,
2013-01-05 17:15:00,12.6,10.0,30.23,ENE,69,0.0,0.0,87,0.00,,,0.00,weatherlink.com 1.10,2013-01-05 22:15:00,
2013-01-05 17:30:00,12.5,10.0,30.24,NE,45,0.0,0.0,88,0.00,,,0.00,weatherlink.com 1.10,2013-01-05 22:30:00,
2013-01-05 17:45:00,12.5,10.0,30.25,NE,51,0.0,0.0,88,0.00,,,0.00,weatherlink.com 1.10,2013-01-05 22:45:00,
2013-01-05 18:00:00,12.5,10.0,30.25,NE,51,0.0,0.0,89,0.00,,,0.00,weatherlink.com 1.10,2013-01-05 23:00:00,
2013-01-05 18:15:00,12.0,9.0,30.26,NE,51,0.0,0.0,88,0.00,,,0.00,weatherlink.com 1.10,2013-01-05 23:15:00,
2013-01-05 18:30:00,12.3,10.0,30.26,NE,53,0.0,0.0,90,0.00,,,0.00,weatherlink.com 1.10,2013-01-05 23:30:00,
2013-01-05 18:45:00,12.0,9.0,30.26,NE,49,0.0,0.0,89,0.00,,,0.00,weatherlink.com 1.10,2013-01-05 23:45:00,
2013-01-05 19:00:00,11.4,9.0,30.26,NE,51,0.0,0.0,89,0.00,,,0.00,weatherlink.com 1.10,2013-01-06 00:00:00,
2013-01-05 19:15:00,11.7,9.0,30.25,NE,51,0.0,0.0,90,0.00,,,0.00,weatherlink.com 1.10,2013-01-06 00:15:00,
2013-01-05 19:30:00,12.0,10.0,30.25,NE,41,0.0,0.0,91,0.00,,,0.00,weatherlink.com 1.10,2013-01-06 00:30:00,
2013-01-05 19:45:00,12.5,10.0,30.25,NE,42,0.0,0.0,91,0.00,,,0.00,weatherlink.com 1.10,2013-01-06 00:45:00,
2013-01-05 20:00:00,13.2,11.0,30.25,NE,41,0.0,0.0,90,0.00,,,0.00,weatherlink.com 1.10,2013-01-06 01:00:00,
2013-01-05 20:15:00,12.9,11.0,30.24,NE,42,0.0,0.0,90,0.00,,,0.00,weatherlink.com 1.10,2013-01-06 01:15:00,
2013-01-05 20:30:00,12.9,11.0,30.24,NE,41,0.0,0.0,90,0.00,,,0.00,weatherlink.com 1.10,2013-01-06 01:30:00,
2013-01-05 20:45:00,13.0,11.0,30.25,NE,41,0.0,0.0,90,0.00,,,0.00,weatherlink.com 1.10,2013-01-06 01:45:00,
2013-01-05 21:00:00,13.3,11.0,30.24,NE,41,0.0,0.0,90,0.00,,,0.00,weatherlink.com 1.10,2013-01-06 02:00:00,
2013-01-05 21:15:00,13.4,11.0,30.25,NE,41,0.0,0.0,90,0.00,,,0.00,weatherlink.com 1.10,2013-01-06 02:15:00,
2013-01-05 21:30:00,13.4,11.0,30.26,NE,41,0.0,0.0,90,0.00,,,0.00,weatherlink.com 1.10,2013-01-06 02:30:00,
2013-01-05 21:45:00,13.5,11.0,30.25,NE,41,0.0,0.0,90,0.00,,,0.00,weatherlink.com 1.10,2013-01-06 02:45:00,
2013-01-05 22:00:00,13.9,12.0,30.24,NE,41,0.0,0.0,91,0.00,,,0.00,weatherlink.com 1.10,2013-01-06 03:00:00,
2013-01-05 22:15:00,14.3,12.0,30.24,NE,41,0.0,0.0,91,0.00,,,0.00,weatherlink.com 1.10,2013-01-06 03:15:00,
2013-01-05 22:30:00,14.9,13.0,30.24,NE,41,0.0,0.0,91,0.00,,,0.00,weatherlink.com 1.10,2013-01-06 03:30:00,
2013-01-05 22:45:00,14.9,13.0,30.23,NE,41,0.0,0.0,92,0.00,,,0.00,weatherlink.com 1.10,2013-01-06 03:45:00,
2013-01-05 23:00:00,15.7,14.0,30.22,NE,42,0.0,0.0,91,0.00,,,0.00,weatherlink.com 1.10,2013-01-06 04:00:00,
2013-01-05 23:15:00,15.9,14.0,30.22,NE,41,0.0,0.0,90,0.00,,,0.00,weatherlink.com 1.10,2013-01-06 04:15:00,
2013-01-05 23:30:00,15.9,14.0,30.23,NE,42,0.0,0.0,90,0.00,,,0.00,weatherlink.com 1.10,2013-01-06 04:30:00,
2013-01-05 23:45:00,15.9,14.0,30.22,NE,42,0.0,0.0,90,0.00,,,0.00,weatherlink.com 1.10,2013-01-06 04:45:00,